Regional Weather Roundup
Issued by NWS

Home | Current Version | Previous Version | Graphics & Text | Print | Product List | Glossary On
Versions: 1 2 3 4 5 6 7 8 9 10 11 12 13 14 15 16 17 18 19 20 21 22 23 24 25 26 27 28 29 30 31 32 33 34 35 36 37 38 39 40 41 42 43 44 45 46 47 48 49 50
000
ASUS43 KMKX 011420
RWRWI

WISCONSIN REGIONAL WEATHER ROUNDUP
NATIONAL WEATHER SERVICE MILWAUKEE/SULLIVAN WI
800 AM CST SUN FEB 01 2015

NOTE: "FAIR" INDICATES FEW OR NO CLOUDS BELOW 12,000 FEET WITH NO
SIGNIFICANT WEATHER AND/OR OBSTRUCTIONS TO VISIBILITY.

WIZ001-002-006>008-014>016-023>028-011500-
NORTHWEST WISCONSIN

CITY           SKY/WX    TMP DP  RH WIND       PRES   REMARKS
SUPERIOR ARPT  CLOUDY     8   4  83 N10G18    30.38R WCI  -7
ASHLAND        LGT SNOW   9   4  80 N16       30.35S WCI  -8
HAYWARD        CLOUDY     8  -2  63 NE7       30.28R WCI  -3
SIREN          MOCLDY    10   0  63 NE7G18    30.30R WCI  -1
CUMBERLAND     CLOUDY     9   0  66 NE13G18   30.24R WCI  -7
RICE LAKE      CLOUDY     9   1  69 NE13G18   30.27R WCI  -7
CHETEK         CLOUDY     8   0  69 MISG      30.25R
LADYSMITH      CLOUDY     8   1  71 NE12G17   30.25R WCI  -7
EAU CLAIRE     LGT SNOW  11   3  70 NE12      30.22R WCI  -3
MENOMONIE      CLOUDY    13   4  67 NE12      30.23R HAZE    WCI  -1
NEW RICHMOND   CLOUDY    11   1  66 NE16G22   30.24R WCI  -6
OSCEOLA        CLOUDY    12   1  63 NE17G23   30.29R WCI  -6
$$

WIZ003>005-009-010-017-018-011500-
NORTH CENTRAL WISCONSIN

CITY           SKY/WX    TMP DP  RH WIND       PRES   REMARKS
MANITOWISH WTR CLOUDY     3  -2  77 NE7       30.23R WCI  -9
ARBOR VITAE    CLOUDY     5   0  77 NE5       30.22R WCI  -4
WOODRUFF       CLOUDY     5   0  77 NE5       30.22R WCI  -4
RHINELANDER    CLOUDY     6  -1  73 NE9       30.20S WCI  -8
EAGLE RIVER    CLOUDY     5  -2  74 NE10      30.22R WCI -10
LAND O LAKES   CLOUDY     4   0  84 NE5       30.24R WCI  -6
PHILLIPS       MOCLDY     4  -2  74 NE12G21   30.21S WCI -12
TOMAHAWK       CLOUDY     6   0  73 NE8       30.21R WCI  -6
MEDFORD        CLOUDY     8   1  73 NE14G20   30.18R WCI  -9
MERRILL        CLOUDY     9   2  73 E13       30.20R WCI  -7
$$

WIZ029-030-035-036-043>047-011500-
CENTRAL WISCONSIN

CITY           SKY/WX    TMP DP  RH WIND       PRES   REMARKS
WAUSAU         CLOUDY    10   1  67 NE13G22   30.18R WCI  -5
MOSINEE        CLOUDY    10   3  72 NE13      30.17S WCI  -5
MARSHFIELD     LGT SNOW  11   5  77 NE15G23   30.16R VSB 1   WCI  -5
STEVENS POINT  CLOUDY     9   4  80 NE10      30.18R HAZE    WCI  -5
WAUPACA        CLOUDY    14   8  79 NE12G17   30.19R HAZE    WCI   0
WAUTOMA        LGT SNOW  13   8  80 NE12      30.17R WCI  -1
WISC RAPIDS    LGT SNOW  11   5  77 NE10G21   30.18R WCI  -3
CAMP DOUGLAS   LGT SNOW  12  12 100 NE10      30.14F VSB 1   WCI  -1
$$

WIZ011>013-019>022-031-037>040-048>050-011500-
NORTHEAST WISCONSIN

CITY           SKY/WX    TMP DP  RH WIND       PRES   REMARKS
ANTIGO         CLOUDY     7   2  78 NE17      30.18S WCI -11
SHAWANO        CLOUDY    14   5  69 NE16G23   30.23S WCI  -2
OCONTO         CLOUDY    10   4  75 NE10G20   30.26S WCI  -3
STURGEON BAY   CLOUDY    10   5  79 N16       30.25S WCI  -7
GREEN BAY      MIX PCPN  12   5  73 NE31G38   30.21F WCI -10
MANITOWOC      LGT SNOW  19  17  92 NE13      30.18S FOG     WCI   6
APPLETON       LGT SNOW  12   9  85 NE15G25   30.17  WCI  -4
CLINTONVILLE   CLOUDY    12   5  73 NE15G24   30.20S WCI  -4
OSHKOSH        LGT SNOW  13   9  84 NE21G29   30.14S FOG     WCI  -5
$$

WIZ032>034-041-042-053>061-011500-
SOUTHWEST WISCONSIN

CITY           SKY/WX    TMP DP  RH WIND       PRES   REMARKS
LA CROSSE      LGT SNOW  16  10  77 NE10      30.14S VSB 1   WCI   4
SPARTA         LGT SNOW  14   9  83 NE13G22   30.15S WCI  -1
VIROQUA        CLOUDY    13  10  87 NE15G28   30.05S WCI  -3
BOSCOBEL       HVY SNOW  17  12  80 NE13G21   30.06F VSB 1/4 WCI   4
PRAIRIE DU CHI MIX PCPN  18  13  80 NE10      30.04S WCI   6
PLATTEVILLE    CLOUDY    18  16  89 NE22G33   29.95F VSB 3/4 WCI   1
$$

WIZ056-057-062-063-064-067-068-011500-
SOUTH CENTRAL WISCONSIN

CITY           SKY/WX    TMP DP  RH WIND       PRES   REMARKS
REEDSBURG      LGT SNOW  13  10  85 NE9       30.10R WCI   1
BARABOO/DELLS  LGT SNOW  13   9  84 NE14G21   30.09R WCI  -2
LONE ROCK      LGT SNOW  16  11  80 NE14G21   30.08R VSB 3/4 WCI   2
MINERAL POINT  LGT SNOW  19  16  86 NE18G29   29.98S WCI   4
MADISON        SNOW      15  11  83 NE17      30.06R VSB 1/2 WCI  -1
MIDDLETON      CLOUDY    17  13  83 NE15G24   30.06R WCI   2
WATERTOWN      LGT SNOW  20  19  95 NE13      30.05S WCI   8
MONROE         LGT SNOW  21  19  93 NE17      29.96S WCI   7
JANESVILLE     CLOUDY    27  23  86 NE21G31   29.99S VSB 3/4 WCI  13
$$

WIZ051-052-058>065-066-070>072-011500-
SOUTHEAST WISCONSIN

CITY           SKY/WX    TMP DP  RH WIND       PRES   REMARKS
MILWAUKEE      SNOW      24  20  84 NE26G32   30.06F VSB 1/4 WCI   8
WAUKESHA       LGT SNOW  21  19  93 NE12G23   30.05F VSB 1   WCI   9
MILWAUKEE/TIMM LGT SNOW  21  19  93 NE17G28   30.07F VSB 3/4 WCI   7
RACINE         SNOW      25  21  85 NE23G33   30.05F VSB 1/4 WCI  10
BURLINGTON     LGT SNOW  22  20  93 NE17G23   30.01F VSB 1   WCI   8
KENOSHA        SNOW      25  23  92 NE26G37   30.01F VSB 1/4 WCI   9
FOND DU LAC    LGT SNOW  15  11  83 NE17      30.13S VSB 1   WCI  -1
SHEBOYGAN      SNOW      20  16  84 NE20G28   30.13S VSB 1/2 WCI   4
WEST BEND      LGT SNOW  21  18  86 NE15G26   30.08F VSB 1   WCI   8
JUNEAU         LGT SNOW  15  12  86 N15G21    30.09S WCI   0
$$

LSZ147-162-011500-
LAKE SUPERIOR

STATION/POSITION TIME  TEMP    WIND        PRES    WAVE
                       AIR SEA DIR/SP/G            HT/PER
                 (UTC) (F)     (DEG/KT/KT) (MB)    (FT/S)
DEVILS ISLAND    1400    9      40/ 19/ 22 1031.1R
PORT WING        1300   13      50/ 16/ 21 1028.4R
SAXON HARBOR     1300   10      CALM  /  5 1027.8S
$$

LMZ867-665-643>646-011500-
LAKE MICHIGAN

STATION/POSITION TIME  TEMP    WIND        PRES    WAVE
                       AIR SEA DIR/SP/G            HT/PER
                 (UTC) (F)     (DEG/KT/KT) (MB)    (FT/S)
NORTHPORT PIER   1329   10      10/ 16/ 23 1025.7F
SISTER BAY       1328    9      10/ 17/ 23   N/A
KEWAUNEE LAKESHO 1400   19      50/ 22/ 27 1021.8F
SHEBOYGAN LAKESH 1400   21      60/ 29/ 31 1021.7S
PORT WASHINGTON  1400   24      60/ 20     1020.3S
MILWAUKEE LAKESH 1400   25      60/ 26/ 31   N/A
KENOSHA   LAKESH 1400   27      60/ 28/ 32 1015.9F
$$

TC  - TEMPERATURE IN CELSIUS
VSB - VISIBILITY IN STATUTE MILES
WCI - WIND CHILL INDEX
HX  - HEAT INDEX



USA.gov is the U.S. government's official web portal to all federal, state and local government web resources and services.